Regional Weather Roundup
Issued by NWS Wilmington, NC

Home | Current Version | Previous Version | Text Only | Print | Product List | Glossary On
Versions: 1 2 3 4 5 6 7 8 9 10 11 12 13 14 15 16 17 18 19 20 21 22 23 24 25 26 27 28 29 30 31 32 33 34 35 36 37 38 39 40 41 42 43 44 45 46 47 48 49 50
000
ASUS42 KILM 280910
RWRILM
RWRILM
REGIONAL HOURLY WEATHER ROUNDUP
NATIONAL WEATHER SERVICE WILMINGTON NC
400 AM EST WED JAN 28 2015

NOTE: "FAIR" INDICATES FEW OR NO CLOUDS BELOW 12,000 FEET WITH NO
SIGNIFICANT WEATHER AND/OR OBSTRUCTIONS TO VISIBILITY.

...............WFO WILMINGTON COUNTY WARNING AREA...............

......COASTAL NC AND SC COUNTIES......

CITY           SKY/WX    TMP DP  RH WIND       PRES   REMARKS
WILMINGTON     CLOUDY    32  17  54 N12       30.05R WCI  23
SOUTHPORT      CLEAR     31  16  53 NW7       30.05R WCI  24
N MYRTLE BEACH CLEAR     33  17  51 N5        30.06R WCI  29
MYRTLE BEACH   CLEAR     34  18  51 NW7       30.09R WCI  28

......INLAND NC AND SC COUNTIES.......

CITY           SKY/WX    TMP DP  RH WIND       PRES   REMARKS
LUMBERTON      CLEAR     32  14  47 N9        30.08R WCI  24
ELIZABETHTOWN  CLEAR     30  16  57 CALM      30.07R
WHITEVILLE     CLEAR     31  15  52 CALM      30.06S
FLORENCE       CLEAR     33  17  51 N12       30.09R WCI  24
DARLINGTON     CLEAR     32  18  55 N9        30.10R WCI  24

....................REST OF NORTH CAROLINA......................

.........EASTERN NC.........

CITY           SKY/WX    TMP DP  RH WIND       PRES   REMARKS
CAPE HATTERAS  CLOUDY    35  26  69 N8        29.98R WCI  29
JACKSONVILLE   CLEAR     28  19  69 CALM      30.05R
MOREHEAD CITY  PTCLDY    33  29  85 N10       30.01R WCI  25
KENANSVILLE    CLEAR     29  17  60 NW5       30.06R WCI  24
NEW BERN       PTCLDY    32  23  69 NW7       30.04R WCI  26
ELIZABETH CITY MOCLDY    30  20  66 NW12      30.01R WCI  20

.........CENTRAL NC.........

CITY           SKY/WX    TMP DP  RH WIND       PRES   REMARKS
RALEIGH DURHAM PTCLDY    27  12  53 VRB6      30.07R WCI  20
ROCKY MOUNT    CLOUDY    30  17  58 NW9       30.06R WCI  22
ROANOKE RAPIDS NOT AVBL
FAYETTEVILLE   CLEAR     30  14  51 N10       30.07R WCI  21
HOFFMAN        CLEAR     27  13  56 N6        30.10R WCI  20

.........WESTERN NC.........

CITY           SKY/WX    TMP DP  RH WIND       PRES   REMARKS
CHARLOTTE      CLEAR     27  13  55 N5        30.09R WCI  22
GREENSBORO     CLEAR     23  12  62 CALM      30.06R
HICKORY        NOT AVBL
BOONE          NOT AVBL
ASHEVILLE      NOT AVBL

.....................REST OF SOUTH CAROLINA.....................

.........EASTERN SC.........

CITY           SKY/WX    TMP DP  RH WIND       PRES   REMARKS
CHARLESTON     CLEAR     33  26  75 NW6       30.09R WCI  28
BEAUFORT MCAS  CLEAR     38  27  64 N9        30.10R WCI  31
HILTON HEAD    CLEAR     39  30  70 N9        30.10S WCI  33

.........CENTRAL SC.........

CITY           SKY/WX    TMP DP  RH WIND       PRES   REMARKS
COLUMBIA       CLEAR     35  22  58 N6        30.10R WCI  30
ORANGEBURG     CLEAR     32  25  75 NW3       30.09R
SUMTER SHAW    CLEAR     33  19  57 N8        30.08R WCI  26

.........WESTERN SC.........

CITY           SKY/WX    TMP DP  RH WIND       PRES   REMARKS
GREENVILLE     NOT AVBL
ROCK HILL      CLEAR     23  17  78 CALM      30.09R
ANDERSON       CLEAR     26  23  88 CALM      30.10R
CLEMSON        NOT AVBL
GREENWOOD      FAIR      33  16  49 N6        30.11R WCI  28


...................COASTAL AND OFFSHORE REPORTS..................

................LOCAL PIERS AND NC RESERVE................


STATION/POSITION TIME  SKY/WX   TEMP    WIND        PRES    VSBY
                                AIR SEA DIR/SP/G
                 (UTC)          (F)     (DEG/KT/KT) (MB)    (MI)
JOHNY MRCER PIER 0900            33 53  330/ 10/ 13 1016.4R
NC RESRV MASNBRO 0800            32     170/  1     1016.0S
OCEAN CREST PIER 0900            32 52  300/ 10/ 12 1016.3R
SPRINGMAID  PIER 0900            33 50  330/  4/  4 1018.1R


................COASTAL AND OFFSHORE BUOYS................


STATION/POSITION TIME  SKY/WX   TEMP    WIND        PRES    VSBY
                                AIR SEA DIR/SP/G
                 (UTC)          (F)     (DEG/KT/KT) (MB)    (MI)
DIMNDSHOAL 41025 0900            39 59  340/ 17/ 23 1014.2R
WVE H/P(F/S)=  8/13 WND WVE H/P(F/S)=  3/ 6 SWL H/P/D(F/S/D)=  7/ 40/13

CAPE LOOKOUT     0800            37     330/ 15/ 17 1015.5R
ONSLOW BAY 41036 NOT AVBL
5 WRITEBCH 41038 0800            38 53  340/ 17/ 19 1016.1R
MASONBORO  41110 0900               53                N/A
WVE H/P(F/S)=  3/14 WND WVE H/P(F/S)=  2/10 SWL H/P/D(F/S/D)=  2/ 90/14

WILM HARBR 41108 0900               54                N/A
WVE H/P(F/S)=  4/ 4 WND WVE H/P(F/S)=  3/ 4 SWL H/P/D(F/S/D)=  2/130/13

27WRITEBCH 41037 NOT AVBL
FRYING PAN 41013 0900            43 65  340/ 21/ 25 1016.2R
WVE H/P(F/S)=  6/ 5 WND WVE H/P(F/S)=  5/ 5 SWL H/P/D(F/S/D)=  2/ 50/12

SUNST NRSH 41024 0800            37     350/ 12/ 16   N/A
CAPRS NRSH 41029 0800            41      20/ 16/ 19   N/A
EDISTO     41004 0900            47 67  350/ 19/ 25 1016.4R
WVE H/P(F/S)=  5/ 5 WND WVE H/P(F/S)=  5/ 5 SWL H/P/D(F/S/D)=  2/10



..........OFFSHORE BUOYS BEYOND 100 NM OFFSHORE...........
.....IN A TRIANGLE---HAT TO BERMUDA TO BAHAMAS TO HAT.....


STATION/POSITION TIME  SKY/WX   TEMP    WIND        PRES    VSBY
                                AIR SEA DIR/SP/G
                 (UTC)          (F)     (DEG/KT/KT) (MB)    (MI)
150E HAT   41001 NOT AVBL
W BERMUDA  41048 0825            60 71  270/ 19/ 25 1007.0R
WVE H/P(F/S)= 14/11 WND WVE H/P(F/S)= 10/ 5 SWL H/P/D(F/S/D)= 10/270/11

ATLANTIC S 41049 0817            73 75  200/ 16/ 17 1013.6R
WVE H/P(F/S)= 10/11 WND WVE H/P(F/S)=  5/ 5 SWL H/P/D(F/S/D)=  8/260/11

E BAHAMAS  41046 0800            76 78  250/  8/ 10 1014.4
WVE H/P(F/S)= 10/11 WND WVE H/P(F/S)=  2/ 4 SWL H/P/D(F/S/D)= 10/320/11

NE BAHAMAS 41047 0834            70 76  280/ 21/ 25 1012.2R
WVE H/P(F/S)= 13/11 WND WVE H/P(F/S)=  8/ 7 SWL H/P/D(F/S/D)= 10/290/11

120E CANVRL41010 0900            62 75  310/ 19/ 25 1015.3R
WVE H/P(F/S)=  8/ 8 WND WVE H/P(F/S)=  7/ 8 SWL H/P/D(F/S/D)=  2/ 50/13


END


USA.gov is the U.S. government's official web portal to all federal, state and local government web resources and services.